Weather in Timonino

Russia / Arkhangel'skaya Oblast'     61°31′02″N   41°57′58″E
temp.,
°C
wind,
m/s
gust,
m/s
humid.,
%
clouds,
%
prec.,
mm/h
press.,
hPa
HPBL,
m
28 november, sun
sun2800:00−6ne41095100 1.6 1007397
03:00−6ne51195100 3.5 1004438
06:00−6ne41095100 2.8 1001377
09:00−6nne4995100 4.4 1001330
12:00−6nne3894100 0.9 1002314
15:00−7nne3795100 1.3 1002307
18:00−8nne3895100 0.8 1001290
21:00−8n3895100 3.3 1002315
29 november, mon
mon2900:00−9nnw369595 1.5 1005332
03:00−11nw379565 1.7 1008244
06:00−15wnw229854 0.0 101133
09:00−18nw2199100 0.0 101414
12:00−14nne139583 0.0 1015117
15:00−17nne2499100 0.0 101582
18:00−16ne2897100 0.0 1015220
21:00−15ne3996100 0.0 1012236
30 november, tue
tue3000:00−14ene4119596 0.0 1009296
03:00−12ne51395100 0.4 1005422
06:00−11ne51495100 1.0 999427
09:00−9ne51695100 2.1 994565
12:00−7ene61595100 1.8 987580
15:00−7ene61495100 5.1 981639
18:00−7ne51395100 4.1 977599
21:00−6ne51195100 7.3 973493
1 december, wed
wed100:00−6ne4996100 1.3 972344
03:00−6nne2696100 2.0 972230
06:00−5n1297100 0.4 974112
09:00−5w1297100 0.9 976115
12:00−5wsw259493 0.3 979343
15:00−8ssw269697 0.5 982207
18:00−8sw1497100 0.3 983107
21:00−8ssw2596100 1.0 984282
2 december, thu
thu200:00−8wsw2794100 0.3 984327
03:00−8sw379599 0.9 986401
06:00−9wsw399393 0.2 987351
09:00−12wsw399444 0.2 989248
12:00−12wsw3109444 0.0 991292
15:00−14sw279646 0.0 992157
18:00−16sw259877 0.0 99478
21:00−16sw249964 0.0 99468